Fort George G Meade, MD

9:47 PM EST on January 19, 2017 (GMT -0500)
Tipton

Weather History for KFME - June, 2013

Change the Weather History Date:

Thursday, June 6, 2013

  Actual Average (KBWI) Record (KBWI)
Temperature  
Mean Temperature 62 °F -  
Max Temperature 71 °F 79 °F 99 °F (1925)
Min Temperature 53 °F 58 °F 46 °F (1997)
Degree Days  
Heating Degree Days 3    
Growing Degree Days 12 (Base 50)    
Moisture  
Dew Point 58 °F    
Average Humidity 81    
Maximum Humidity 94    
Minimum Humidity 60    
Precipitation  
Precipitation 0.00 in - - ()
Sea Level Pressure  
Sea Level Pressure 30.02 in    
Wind  
Wind Speed 3 mph (SE)    
Max Wind Speed 14 mph    
Max Gust Speed 20 mph    
Visibility 10 miles    
Events      
Averages and records for this station are not official NWS values.
T = Trace of Precipitation, MM = Missing Value Source: NWS Daily Summary

Daily Weather History Graph

Daily Weather History Graph

Search for Another Location

Airport or City:

Trip Planner

Search our weather history database for the weather conditions in past years. The results will help you decide how hot, cold, wet, or windy it might be!

Date:

Astronomy

Jun. 06, 2013 Rise Set
Actual Time 5:41 AM EDT 8:30 PM EDT
Civil Twilight 5:09 AM EDT 9:02 PM EDT
Nautical Twilight 4:29 AM EDT 9:42 PM EDT
Astronomical Twilight 3:43 AM EDT 10:28 PM EDT
Moon 4:20 AM EDT (6/6) 6:50 PM EDT (6/6)
Length of Visible Light 15h 52m
Length of Day
14h 49m
Waning Crescent, 4% of the Moon is Illuminated
Jun 6
Waning Crescent
Jun 8
New
Jun 16
First Quarter
Jun 23
Full
Jun 30
Last Quarter

Hourly Weather History & Observations

Time (EDT) Temp. Dew Point Humidity Pressure Visibility Wind Dir Wind Speed Gust Speed Precip Events Conditions
12:18 AM 57.2 °F 53.6 °F 88% 30.12 in 10.0 mi Calm Calm - N/A   Scattered Clouds
12:39 AM 55.4 °F 53.6 °F 94% 30.12 in 10.0 mi Calm Calm - N/A   Scattered Clouds
12:57 AM 55.4 °F 53.6 °F 94% 30.12 in 10.0 mi Calm Calm - N/A   Clear
1:18 AM 55.4 °F 53.6 °F 94% 30.11 in 10.0 mi Calm Calm - N/A   Clear
1:39 AM 53.6 °F 51.8 °F 94% 30.11 in 10.0 mi Calm Calm - N/A   Clear
1:57 AM 55.4 °F 51.8 °F 88% 30.11 in 10.0 mi SE 3.5 mph - N/A   Scattered Clouds
2:18 AM 55.4 °F 53.6 °F 94% 30.11 in 10.0 mi Calm Calm - N/A   Scattered Clouds
2:39 AM 55.4 °F 53.6 °F 94% 30.11 in 10.0 mi Calm Calm - N/A   Clear
3:00 AM 55.4 °F 53.6 °F 94% 30.10 in 10.0 mi Calm Calm - N/A   Scattered Clouds
3:18 AM 55.4 °F 53.6 °F 94% 30.09 in 10.0 mi Calm Calm - N/A   Overcast
3:39 AM 55.4 °F 53.6 °F 94% 30.09 in 10.0 mi Calm Calm - N/A   Overcast
4:00 AM 55.4 °F 53.6 °F 94% 30.09 in 10.0 mi Calm Calm - N/A   Overcast
4:18 AM 55.4 °F 53.6 °F 94% 30.09 in 10.0 mi Calm Calm - N/A   Mostly Cloudy
4:39 AM 55.4 °F 53.6 °F 94% 30.09 in 10.0 mi Calm Calm - N/A   Clear
5:00 AM 55.4 °F 53.6 °F 94% 30.09 in 10.0 mi Calm Calm - N/A   Clear
5:18 AM 55.4 °F 53.6 °F 94% 30.09 in 10.0 mi Calm Calm - N/A   Mostly Cloudy
5:39 AM 55.4 °F 53.6 °F 94% 30.08 in 10.0 mi Calm Calm - N/A   Overcast
6:00 AM 55.4 °F 53.6 °F 94% 30.09 in 10.0 mi Calm Calm - N/A   Overcast
6:18 AM 57.2 °F 55.4 °F 94% 30.09 in 10.0 mi Calm Calm - N/A   Overcast
6:39 AM 59.0 °F 53.6 °F 82% 30.09 in 10.0 mi Calm Calm - N/A   Overcast
7:18 AM 59.0 °F 55.4 °F 88% 30.08 in 10.0 mi Calm Calm - N/A   Overcast
7:39 AM 60.8 °F 57.2 °F 88% 30.08 in 10.0 mi Calm Calm - N/A   Scattered Clouds
8:00 AM 64.4 °F 57.2 °F 77% 30.08 in 10.0 mi South 4.6 mph - N/A   Clear
8:18 AM 62.6 °F 57.2 °F 82% 30.09 in 10.0 mi Calm Calm - N/A   Scattered Clouds
8:39 AM 64.4 °F 59.0 °F 83% 30.08 in 10.0 mi SE 5.8 mph - N/A   Scattered Clouds
9:00 AM 66.2 °F 57.2 °F 73% 30.08 in 10.0 mi SE 6.9 mph - N/A   Mostly Cloudy
9:18 AM 68.0 °F 55.4 °F 64% 30.07 in 10.0 mi ESE 9.2 mph - N/A   Mostly Cloudy
9:39 AM 68.0 °F 55.4 °F 64% 30.07 in 10.0 mi SSE 8.1 mph - N/A   Scattered Clouds
10:00 AM 68.0 °F 55.4 °F 64% 30.06 in 10.0 mi SSE 5.8 mph - N/A   Clear
10:18 AM 68.0 °F 55.4 °F 64% 30.06 in 10.0 mi SE 8.1 mph - N/A   Clear
10:39 AM 69.8 °F 57.2 °F 64% 30.05 in 10.0 mi SSE 6.9 mph - N/A   Clear
11:00 AM 71.6 °F 57.2 °F 60% 30.04 in 10.0 mi SE 13.8 mph 17.3 mph N/A   Scattered Clouds
11:21 AM 69.8 °F 57.2 °F 64% 30.05 in 10.0 mi SSE 8.1 mph - N/A   Scattered Clouds
11:39 AM 69.8 °F 59.0 °F 68% 30.05 in 10.0 mi SSE 10.4 mph - N/A   Scattered Clouds
12:00 PM 71.6 °F 59.0 °F 64% 30.04 in 10.0 mi SE 9.2 mph - N/A   Scattered Clouds
12:21 PM 71.6 °F 59.0 °F 64% 30.03 in 10.0 mi SE 9.2 mph 17.3 mph N/A   Mostly Cloudy
12:39 PM 71.6 °F 59.0 °F 64% 30.03 in 10.0 mi SE 9.2 mph - N/A   Scattered Clouds
1:00 PM 71.6 °F 59.0 °F 64% 30.02 in 10.0 mi SE 10.4 mph 19.6 mph N/A   Mostly Cloudy
1:21 PM 69.8 °F 59.0 °F 68% 30.01 in 10.0 mi SSE 8.1 mph - N/A   Mostly Cloudy
1:39 PM 69.8 °F 59.0 °F 68% 30.01 in 10.0 mi SE 8.1 mph - N/A   Overcast
2:00 PM 71.6 °F 60.8 °F 69% 30.00 in 10.0 mi SE 11.5 mph 17.3 mph N/A   Overcast
2:21 PM 71.6 °F 60.8 °F 69% 29.99 in 10.0 mi SE 8.1 mph - N/A   Overcast
2:39 PM 69.8 °F 60.8 °F 73% 29.99 in 10.0 mi SSE 5.8 mph - N/A   Overcast
3:00 PM 69.8 °F 60.8 °F 73% 29.98 in 10.0 mi SSE 6.9 mph - N/A   Overcast
3:21 PM 69.8 °F 60.8 °F 73% 29.98 in 10.0 mi SSE 4.6 mph - N/A   Overcast
3:39 PM 69.8 °F 59.0 °F 68% 29.98 in 10.0 mi SE 6.9 mph - N/A   Overcast
4:00 PM 69.8 °F 59.0 °F 68% 29.98 in 10.0 mi SSE 8.1 mph - N/A   Overcast
4:21 PM 71.6 °F 59.0 °F 64% 29.96 in 10.0 mi SSE 9.2 mph - N/A   Overcast
4:39 PM 71.6 °F 59.0 °F 64% 29.95 in 10.0 mi SE 11.5 mph - N/A   Overcast
5:00 PM 71.6 °F 59.0 °F 64% 29.95 in 10.0 mi SE 10.4 mph - N/A   Overcast
5:21 PM 71.6 °F 60.8 °F 69% 29.95 in 10.0 mi SE 10.4 mph 18.4 mph N/A   Overcast
5:39 PM 69.8 °F 59.0 °F 68% 29.95 in 10.0 mi SE 5.8 mph - N/A   Overcast
6:00 PM 69.8 °F 59.0 °F 68% 29.95 in 10.0 mi SE 9.2 mph - N/A   Overcast
6:21 PM 69.8 °F 59.0 °F 68% 29.95 in 10.0 mi SE 10.4 mph 18.4 mph N/A   Overcast
6:39 PM 68.0 °F 60.8 °F 78% 29.95 in 10.0 mi SE 6.9 mph - N/A   Overcast
7:00 PM 66.2 °F 60.8 °F 83% 29.96 in 10.0 mi SE 3.5 mph - N/A   Overcast
7:21 PM 64.4 °F 60.8 °F 88% 29.96 in 10.0 mi SE 4.6 mph - N/A   Overcast
7:39 PM 64.4 °F 60.8 °F 88% 29.96 in 7.0 mi ESE 6.9 mph - N/A   Overcast
8:00 PM 64.4 °F 60.8 °F 88% 29.95 in 5.0 mi ESE 6.9 mph - N/A   Overcast
8:21 PM 62.6 °F 59.0 °F 88% 29.95 in 4.0 mi ESE 5.8 mph - N/A   Overcast
8:42 PM 62.6 °F 59.0 °F 88% 29.95 in 10.0 mi ESE 5.8 mph - N/A   Scattered Clouds
9:00 PM 62.6 °F 59.0 °F 88% 29.94 in 3.0 mi ESE 3.5 mph - N/A   Overcast
9:21 PM 62.6 °F 59.0 °F 88% 29.93 in 7.0 mi ENE 5.8 mph - N/A   Overcast
9:42 PM 62.6 °F 60.8 °F 94% 29.93 in 10.0 mi East 8.1 mph - N/A   Overcast
10:00 PM 62.6 °F 60.8 °F 94% 29.93 in 10.0 mi East 5.8 mph - N/A   Overcast
10:21 PM 62.6 °F 60.8 °F 94% 29.93 in 10.0 mi East 4.6 mph - N/A   Overcast
10:42 PM 62.6 °F 60.8 °F 94% 29.93 in 10.0 mi East 6.9 mph - N/A   Overcast
11:00 PM 62.6 °F 60.8 °F 94% 29.92 in 10.0 mi East 6.9 mph - N/A   Overcast
11:21 PM 64.4 °F 62.6 °F 94% 29.91 in 10.0 mi East 5.8 mph - N/A   Overcast
11:42 PM 64.4 °F 62.6 °F 94% 29.90 in 10.0 mi East 6.9 mph - N/A   Overcast